| time (UTC) | temp C | wind direction | speed KPH | gust KPH | rain 1hr cm | rain 24hr cm | rain mn cm | humidity % | barometer mb |
| 20260906071529 | 19 | 284 | 0.0 | 8.0 | 0.00 | 0.53 | 0.00 | 83 | 1014.4 |
| 20260906070029 | 19 | 146 | 0.0 | 6.4 | 0.00 | 0.53 | 0.00 | 83 | 1014.4 |
| 20260906064534 | 19 | 203 | 0.0 | 4.8 | 0.00 | 0.53 | 0.00 | 83 | 1014.3 |
| 20260906063015 | 19 | 2 | 3.2 | 6.4 | 0.00 | 0.53 | 0.00 | 84 | 1014.4 |
| 20260906061522 | 18 | 204 | 0.0 | 6.4 | 0.00 | 0.53 | 0.00 | 85 | 1014.5 |
| 20260906060023 | 18 | 286 | 0.0 | 6.4 | 0.00 | 0.53 | 0.00 | 86 | 1014.4 |
| 20260906054525 | 18 | 332 | 0.0 | 4.8 | 0.00 | 0.53 | 0.00 | 87 | 1014.3 |
| 20260906053025 | 18 | 300 | 0.0 | 4.8 | 0.00 | 0.53 | 0.00 | 88 | 1014.0 |
| 20260906051527 | 19 | 266 | 0.0 | 4.8 | 0.00 | 0.53 | 0.00 | 88 | 1013.9 |
| 20260906050028 | 19 | 313 | 1.6 | 4.8 | 0.00 | 0.53 | 0.00 | 88 | 1013.7 |
| 20260906044527 | 20 | 329 | 0.0 | 0.0 | 0.00 | 0.53 | 0.00 | 88 | 1013.6 |
| 20260906043033 | 20 | 292 | 0.0 | 0.0 | 0.00 | 0.53 | 0.00 | 88 | 1013.4 |
| 20260906041529 | 20 | 335 | 0.0 | 0.0 | 0.00 | 0.53 | 0.00 | 88 | 1013.3 |
| 20260906040034 | 21 | 312 | 0.0 | 1.6 | 0.00 | 0.53 | 0.00 | 88 | 1013.5 |
| 20260906034548 | 21 | 68 | 0.0 | 8.0 | 0.00 | 0.53 | 0.53 | 88 | 1013.5 |
| 20260906033008 | 21 | 265 | 0.0 | 11.3 | 0.00 | 0.53 | 0.53 | 87 | 1013.5 |
| 20260906031514 | 21 | 125 | 3.2 | 9.7 | 0.00 | 0.53 | 0.53 | 87 | 1013.4 |
| 20260906030015 | 22 | 68 | 3.2 | 6.4 | 0.00 | 0.53 | 0.53 | 88 | 1013.4 |
| 20260906024517 | 22 | 306 | 0.0 | 9.7 | 0.00 | 0.53 | 0.53 | 88 | 1013.5 |
| 20260906023058 | 22 | 139 | 1.6 | 6.4 | 0.00 | 0.53 | 0.53 | 88 | 1013.4 |
| 20260906021504 | 23 | 71 | 0.0 | 4.8 | 0.00 | 0.53 | 0.53 | 88 | 1013.3 |
| 20260906020005 | 23 | 111 | 1.6 | 14.5 | 0.00 | 0.53 | 0.53 | 88 | 1013.3 |
| 20260906014512 | 23 | 209 | 1.6 | 6.4 | 0.00 | 0.53 | 0.53 | 88 | 1013.0 |
| 20260906013018 | 23 | 211 | 0.0 | 4.8 | 0.00 | 0.53 | 0.53 | 88 | 1012.9 |
| 20260906011517 | 23 | 307 | 0.0 | 0.0 | 0.00 | 0.53 | 0.53 | 87 | 1012.7 |
| 20260906010022 | 23 | 246 | 0.0 | 0.0 | 0.00 | 0.53 | 0.53 | 86 | 1012.5 |
| 20260906004524 | 24 | 200 | 0.0 | 0.0 | 0.00 | 0.53 | 0.53 | 86 | 1012.5 |
| 20260906003030 | 24 | 84 | 0.0 | 4.8 | 0.00 | 0.53 | 0.53 | 86 | 1012.3 |
| 20260906001523 | 24 | 54 | 1.6 | 4.8 | 0.00 | 0.53 | 0.53 | 86 | 1012.2 |
| 20260906000017 | 25 | 92 | 0.0 | 4.8 | 0.00 | 0.53 | 0.53 | 86 | 1012.1 |
| 20260905234519 | 25 | 166 | 1.6 | 8.0 | 0.00 | 0.53 | 0.53 | 86 | 1012.1 |
| 20260905233024 | 25 | 95 | 0.0 | 6.4 | 0.00 | 0.53 | 0.53 | 86 | 1012.0 |
| 20260905231510 | 25 | 96 | 1.6 | 8.0 | 0.00 | 0.53 | 0.53 | 85 | 1011.8 |
| 20260905230005 | 26 | 161 | 0.0 | 4.8 | 0.00 | 0.53 | 0.53 | 85 | 1011.8 |
| 20260905224516 | 26 | 190 | 0.0 | 6.4 | 0.00 | 0.53 | 0.53 | 84 | 1011.9 |
| 20260905223030 | 26 | 155 | 0.0 | 3.2 | 0.00 | 0.53 | 0.53 | 83 | 1011.6 |
| 20260905221522 | 26 | 331 | 0.0 | 6.4 | 0.00 | 0.53 | 0.53 | 83 | 1011.5 |
| 20260905220024 | 26 | 3 | 4.8 | 12.9 | 0.00 | 0.53 | 0.53 | 82 | 1011.4 |
| 20260905214525 | 27 | 169 | 0.0 | 3.2 | 0.00 | 0.53 | 0.53 | 81 | 1011.1 |
| 20260905213033 | 27 | 166 | 0.0 | 4.8 | 0.00 | 0.53 | 0.53 | 82 | 1010.9 |
| 20260905211533 | 27 | 159 | 3.2 | 6.4 | 0.00 | 0.53 | 0.53 | 81 | 1011.2 |
| 20260905210044 | 27 | 171 | 0.0 | 3.2 | 0.00 | 0.53 | 0.53 | 80 | 1011.5 |
| 20260905204539 | 27 | 153 | 3.2 | 9.7 | 0.00 | 0.53 | 0.53 | 80 | 1011.5 |
| 20260905203046 | 27 | 154 | 0.0 | 4.8 | 0.00 | 0.53 | 0.53 | 79 | 1011.6 |
| 20260905201553 | 27 | 90 | 0.0 | 3.2 | 0.00 | 0.53 | 0.53 | 80 | 1011.7 |
| 20260905200113 | 27 | 321 | 0.0 | 6.4 | 0.00 | 2.34 | 0.53 | 80 | 1011.9 |
| 20260905194600 | 28 | 360 | 0.0 | 3.2 | 0.00 | 2.34 | 0.53 | 77 | 1012.2 |
| 20260905193010 | 29 | 242 | 0.0 | 0.0 | 0.00 | 2.34 | 0.53 | 77 | 1012.3 |
| 20260905191505 | 28 | 351 | 0.0 | 8.0 | 0.00 | 2.34 | 0.53 | 76 | 1012.5 |
| 20260905190007 | 28 | 19 | 0.0 | 4.8 | 0.00 | 2.34 | 0.53 | 78 | 1012.7 |
| 20260905184519 | 27 | 303 | 1.6 | 8.0 | 0.00 | 2.34 | 0.53 | 78 | 1012.7 |
| 20260905183021 | 27 | 264 | 0.0 | 4.8 | 0.00 | 2.34 | 0.53 | 79 | 1012.9 |
| 20260905181559 | 26 | 13 | 1.6 | 4.8 | 0.00 | 2.34 | 0.53 | 80 | 1013.1 |
| 20260905181502 | 26 | 2 | 0.0 | 4.8 | 0.00 | 2.34 | 0.53 | 81 | 1013.1 |
| 20260905180055 | 26 | 221 | 0.0 | 6.4 | 0.00 | 2.34 | 0.53 | 81 | 1013.2 |
| 20260905174603 | 25 | 44 | 1.6 | 6.4 | 0.00 | 2.34 | 0.53 | 83 | 1013.2 |
| 20260905173008 | 24 | 355 | 0.0 | 8.0 | 0.00 | 2.34 | 0.53 | 85 | 1013.1 |
| 20260905171508 | 23 | 353 | 3.2 | 8.0 | 0.00 | 2.34 | 0.53 | 86 | 1013.3 |
| 20260905170014 | 23 | 354 | 3.2 | 6.4 | 0.03 | 2.34 | 0.53 | 86 | 1013.3 |
| 20260905164520 | 23 | 6 | 6.4 | 9.7 | 0.03 | 2.34 | 0.53 | 85 | 1013.6 |
| 20260905163027 | 24 | 6 | 0.0 | 6.4 | 0.03 | 2.34 | 0.53 | 84 | 1013.4 |
| 20260905161528 | 25 | 352 | 4.8 | 8.0 | 0.03 | 2.34 | 0.53 | 83 | 1013.8 |
| 20260905160033 | 25 | 5 | 0.0 | 0.0 | 0.00 | 2.31 | 0.51 | 83 | 1013.4 |
| 20260905154516 | 25 | 119 | 1.6 | 4.8 | 0.00 | 2.31 | 0.51 | 83 | 1013.2 |
| 20260905153027 | 24 | 174 | 0.0 | 0.0 | 0.00 | 2.31 | 0.51 | 85 | 1013.1 |
| 20260905151527 | 24 | 174 | 0.0 | 3.2 | 0.00 | 2.31 | 0.51 | 85 | 1013.0 |
| 20260905150026 | 23 | 290 | 0.0 | 3.2 | 0.00 | 2.31 | 0.51 | 87 | 1013.1 |
| 20260905144543 | 23 | 268 | 0.0 | 3.2 | 0.00 | 2.31 | 0.51 | 87 | 1013.1 |
| 20260905143037 | 22 | 19 | 0.0 | 6.4 | 0.00 | 2.31 | 0.51 | 89 | 1012.9 |
| 20260905141546 | 21 | 62 | 3.2 | 6.4 | 0.00 | 2.31 | 0.51 | 90 | 1012.9 |
| 20260905140034 | 21 | 134 | 0.0 | 3.2 | 0.00 | 2.31 | 0.51 | 90 | 1012.6 |
| 20260905134541 | 20 | 341 | 0.0 | 0.0 | 0.00 | 2.31 | 0.51 | 90 | 1012.7 |
| 20260905133044 | 20 | 218 | 0.0 | 0.0 | 0.00 | 2.31 | 0.51 | 90 | 1012.7 |
| 20260905131601 | 20 | 218 | 0.0 | 0.0 | 0.00 | 2.31 | 0.51 | 90 | 1013.7 |
| 20260905130051 | 20 | 218 | 0.0 | 0.0 | 0.00 | 2.31 | 0.51 | 90 | 1013.7 |
| 20260905124559 | 20 | 156 | 0.0 | 0.0 | 0.00 | 2.31 | 0.51 | 90 | 1013.7 |
| 20260905123014 | 19 | 157 | 0.0 | 1.6 | 0.03 | 2.31 | 0.51 | 90 | 1014.3 |
| 20260905121517 | 19 | 159 | 3.2 | 6.4 | 0.13 | 2.31 | 0.51 | 90 | 1013.6 |
| 20260905120014 | 19 | 152 | 3.2 | 8.0 | 0.20 | 2.31 | 0.51 | 90 | 1013.9 |
| 20260905114520 | 19 | 142 | 4.8 | 9.7 | 0.30 | 2.31 | 0.51 | 89 | 1014.1 |
| 20260905113027 | 19 | 131 | 0.0 | 3.2 | 0.33 | 2.29 | 0.48 | 89 | 1014.5 |
| 20260905111524 | 19 | 33 | 0.0 | 0.0 | 0.23 | 2.18 | 0.38 | 89 | 1015.3 |
| 20260905110020 | 19 | 146 | 0.0 | 6.4 | 0.13 | 2.08 | 0.30 | 89 | 1015.2 |
| 20260905104522 | 19 | 124 | 1.6 | 8.0 | 0.05 | 2.01 | 0.20 | 89 | 1015.1 |
| 20260905103041 | 19 | 163 | 1.6 | 9.7 | 0.08 | 1.96 | 0.15 | 89 | 1014.8 |
| 20260905101532 | 19 | 2 | 0.0 | 4.8 | 0.15 | 1.96 | 0.15 | 89 | 1014.9 |
| 20260905100045 | 19 | 181 | 3.2 | 9.7 | 0.15 | 1.96 | 0.15 | 89 | 1015.0 |
| 20260905094542 | 19 | 196 | 3.2 | 14.5 | 0.15 | 1.96 | 0.15 | 89 | 1015.2 |
| 20260905093042 | 19 | 337 | 8.0 | 14.5 | 0.08 | 1.88 | 0.08 | 88 | 1015.6 |
| 20260905091546 | 20 | 329 | 8.0 | 19.3 | 0.00 | 1.80 | 0.00 | 86 | 1015.7 |
| 20260905090040 | 21 | 355 | 14.5 | 38.6 | 0.00 | 1.80 | 0.00 | 86 | 1015.3 |
| 20260905084540 | 21 | 347 | 17.7 | 29.0 | 0.00 | 1.80 | 0.00 | 89 | 1014.8 |
| 20260905083041 | 21 | 88 | 0.0 | 0.0 | 0.00 | 1.80 | 0.00 | 89 | 1012.8 |
| 20260905081526 | 21 | 88 | 0.0 | 1.6 | 0.00 | 1.80 | 0.00 | 89 | 1012.7 |
| 20260905080036 | 21 | 161 | 0.0 | 3.2 | 0.00 | 1.80 | 0.00 | 89 | 1012.7 |
| 20260905074533 | 21 | 161 | 1.6 | 4.8 | 0.00 | 1.80 | 0.00 | 89 | 1012.6 |
| 20260905073036 | 21 | 146 | 0.0 | 0.0 | 0.00 | 1.80 | 0.00 | 89 | 1012.5 |